{"data":{"norad_id":54091,"epoch":"2026-09-20T22:00:03.000096Z","epoch_age_seconds":53148,"freshness":"FRESH","line1":"1 54091U 22136AS  26263.91670139  .00005869  00000+0  33318-3 0  9996","line2":"2 54091  53.1608 176.5322 0002405  63.0586 313.5924 15.14280116  5796","mean_motion":15.14280116,"eccentricity":0.0002405,"inclination_deg":53.1608,"raan_deg":176.5322,"arg_perigee_deg":63.0586,"mean_anomaly_deg":313.5924,"bstar":0.00033318,"rev_number":579,"period_min":95.094691185921,"perigee_km":521.50516892443,"apogee_km":524.82469515375,"semimajor_km":6901.3019320391,"source":"CELESTRAK","updated_at":"2026-09-21T09:00:33.083683Z"}}